www.pogodaiklimat.ru

Погода и климат >> Архив погоды >> Португалия >> Порту


АРХИВ ПОГОДЫ в Порту

Время (UTC), дата Ветер
(напр.,м/с)
 
Видим.   Явления Облачность Т
(С)
Тd
(С)
f
(%)
Тe
(С)
Тes
(С)
Комфортность P
(гПа)
Po
(гПа)
Тmin
(С)
Tmax
(С)
R
(мм)
R24
(мм)
S
(см)
07 19.06 Ю 2 н/о н/о +16.5 +15.8 96 +17 +17 прохладно 1015.5 1007.2
08 19.06 Ю 3 н/о н/о +17.2 +16.1 93 +17 +17 по сезону 1015.8 1007.6
09 19.06 Ю 3 н/о н/о +18.6 +13.9 74 +19 +22 по сезону 1015.9 1007.8
10 19.06 ЮЗ 4 н/о н/о +19.5 +14.0 71 +21 +21 комфорт 1016.5 1008.4
11 19.06 Ю 4 н/о н/о +19.1 +14.3 74 +20 +20 прохладно 1017.0 1008.9
12 19.06 ЮЗ 4 20 км дымка 9/8 210 м
[Cu Sc Ac trans Ci sp]
+19.9 +15.1 74 +22 +24 комфорт 1017.1 1009.0
13 19.06 ЮЗ 3 н/о н/о +19.9 +15.3 75 +22 +22 комфорт 1017.3 1009.2
14 19.06 З 3 н/о н/о +20.1 +14.3 69 +23 +23 комфорт 1017.4 1009.3
15 19.06 З 3 н/о н/о +20.6 +13.8 65 +23 +28 комфорт 1017.2 1009.2
16 19.06 З 3 н/о н/о +20.6 +12.9 61 +23 +23 комфорт 1017.1 1009.0
17 19.06 З 3 н/о н/о +19.3 +13.8 70 +21 +21 комфорт 1017.1 1009.0
18 19.06 З 3 н/о н/о +19.0 +13.7 71 +20 +20 по сезону 1017.1 1009.0 +21.0
19 19.06 З 3 н/о н/о +17.9 +13.7 76 +18 +18 по сезону 1017.3 1009.1
20 19.06 СЗ 4 н/о н/о +16.5 +13.6 83 +16 +16 прохладно 1017.3 1009.2
21 19.06 СЗ 2 н/о н/о +15.5 +13.3 87 +15 +15 прохладно 1017.6 1009.4
22 19.06 С 2 н/о н/о +15.1 +13.3 89 +15 +15 по сезону 1017.8 1009.6
23 19.06 С 2 н/о н/о +14.4 +12.9 91 +14 +14 прохладно 1018.0 1009.7
00 20.06 С 2 12 км 4/4 1440 м
[Sc]
+14.1 +12.4 89 +14 +14 прохладно 1017.8 1009.6
01 20.06 С 1 н/о н/о +14.6 +13.1 91 +15 +15 по сезону 1017.6 1009.3
02 20.06 С 1 н/о н/о +14.8 +13.1 90 +15 +15 по сезону 1017.0 1008.8
03 20.06 С 1 н/о н/о +15.2 +13.6 90 +16 +16 по сезону 1016.8 1008.6
04 20.06 С 1 н/о н/о +15.3 +13.7 90 +16 +16 по сезону 1016.8 1008.6
05 20.06 С 1 н/о н/о +15.5 +13.8 90 +16 +16 по сезону 1016.5 1008.4
06 20.06 СВ 2 н/о н/о +15.4 +13.5 88 +15 +15 по сезону 1016.7 1008.5 +14.0
07 20.06 ЮВ 1 н/о н/о +16.0 +13.8 87 +17 +17 прохладно 1016.8 1008.6
08 20.06 С 1 н/о н/о +17.8 +14.1 79 +19 +19 по сезону 1016.8 1008.6
09 20.06 З 2 н/о н/о +17.9 +13.7 76 +18 +18 по сезону 1016.8 1008.6
10 20.06 З 3 н/о н/о +17.3 +13.5 78 +17 +17 очень
холодно
1017.2 1008.9
11 20.06 З 3 н/о н/о +17.6 +14.3 81 +18 +18 холодно 1017.5 1009.3
12 20.06 З 4 15 км 10/9 210 м
[Cu Sc Ci sp]
+18.1 +14.3 78 +18 +18 холодно 1017.7 1009.5
13 20.06 СЗ 4 н/о н/о +18.5 +13.8 74 +19 +19 холодно 1017.5 1009.4
14 20.06 З 5 н/о н/о +18.8 +14.1 74 +19 +19 холодно 1017.4 1009.3
15 20.06 З 5 н/о н/о +18.2 +13.8 75 +18 +18 холодно 1017.2 1009.1
16 20.06 СЗ 5 н/о н/о +17.7 +13.1 74 +17 +17 очень
холодно
1016.9 1008.8
17 20.06 СЗ 6 н/о н/о +18.6 +13.8 74 +19 +19 прохладно 1017.0 1008.9
18 20.06 СЗ 5 н/о н/о +17.9 +13.5 75 +18 +18 прохладно 1017.0 1008.8 +19.7
19 20.06 З 5 н/о н/о +16.6 +13.5 82 +16 +16 прохладно 1017.3 1009.1
20 20.06 СЗ 4 н/о н/о +15.9 +13.1 83 +15 +15 холодно 1017.3 1009.1
21 20.06 З 2 н/о н/о +15.4 +13.2 87 +15 +15 прохладно 1017.9 1009.7
22 20.06 З 2 н/о н/о +15.4 +13.4 88 +15 +15 по сезону 1018.5 1010.3
23 20.06 З 1 н/о н/о +15.4 +13.4 88 +16 +16 по сезону 1018.6 1010.4
00 21.06 Ю 1 18 км 9/6 240 м
[Cu Sc Ac trans]
+15.4 +13.5 88 +16 +16 по сезону 1018.5 1010.3
01 21.06 ЮВ 1 н/о н/о +14.8 +12.7 87 +15 +15 по сезону 1018.5 1010.1
02 21.06 ЮВ 2 н/о н/о +14.9 +13.1 89 +15 +15 по сезону 1018.4 1010.0
03 21.06 ЮВ 2 н/о н/о +14.3 +12.4 88 +14 +14 по сезону 1018.1 1009.9
04 21.06 В 3 н/о н/о +15.6 +13.1 85 +15 +15 по сезону 1017.9 1009.7
05 21.06 В 1 н/о н/о +15.7 +13.0 84 +16 +16 по сезону 1018.4 1010.1
06 21.06 В 1 н/о н/о +16.2 +13.3 83 +17 +17 тепло 1018.6 1010.4 +14.2
07 21.06 З 2 н/о н/о +16.3 +13.4 83 +16 +16 прохладно 1019.0 1010.8
08 21.06 З 2 н/о н/о +17.1 +13.8 81 +17 +17 по сезону 1019.3 1011.1
09 21.06 З 2 н/о н/о +18.7 +14.2 75 +20 +20 тепло 1019.3 1011.1
10 21.06 З 3 н/о н/о +19.1 +13.7 71 +21 +21 комфорт 1019.2 1011.1
11 21.06 З 3 н/о н/о +19.5 +13.9 70 +21 +21 комфорт 1019.5 1011.5
12 21.06 З 4 15 км 4/4 400 м
[Cu hum]
+19.2 +13.3 69 +20 +28 по сезону 1019.6 1011.6
13 21.06 З 3 н/о н/о +20.3 +14.5 69 +23 +23 комфорт 1019.2 1011.2
14 21.06 СЗ 3 н/о н/о +20.3 +13.1 63 +23 +23 комфорт 1018.7 1010.6
15 21.06 З 5 н/о н/о +19.7 +13.3 67 +21 +29 комфорт 1018.5 1010.5
16 21.06 З 4 н/о н/о +19.8 +12.6 63 +21 +21 комфорт 1018.4 1010.3
17 21.06 СЗ 6 н/о н/о +18.9 +12.7 67 +19 +19 прохладно 1018.3 1010.2
18 21.06 СЗ 5 н/о н/о +18.9 +13.2 69 +20 +20 по сезону 1018.1 1010.1 +20.8
19 21.06 СЗ 5 н/о н/о +17.6 +11.9 69 +17 +17 по сезону 1018.0 1009.9
20 21.06 СЗ 3 н/о н/о +16.1 +12.0 77 +16 +16 прохладно 1017.8 1009.6
21 21.06 З 2 н/о н/о +15.2 +12.4 83 +15 +15 прохладно 1017.9 1009.7
22 21.06 З 1 н/о н/о +14.9 +12.7 87 +15 +15 по сезону 1017.7 1009.5
23 21.06 З 1 н/о н/о +14.6 +12.8 89 +15 +15 по сезону 1017.5 1009.3
00 22.06 СЗ 2 9000 м дымка 8/6 180 м
[St Ci sp]
+15.2 +13.5 90 +15 +15 по сезону 1017.3 1009.1
01 22.06 С 2 н/о н/о +15.0 +13.4 90 +15 +15 по сезону 1017.0 1008.9
02 22.06 С 1 н/о н/о +14.6 +12.9 90 +15 +15 по сезону 1016.7 1008.6
03 22.06 штиль 0 н/о н/о +14.2 +12.3 88 +14 +14 по сезону 1016.2 1008.0
04 22.06 В 3 н/о н/о +14.3 +12.5 89 +13 +13 по сезону 1015.1 1006.9
05 22.06 ЮВ 1 н/о н/о +14.3 +12.4 88 +15 +15 по сезону 1015.2 1007.0
06 22.06 ЮЗ 1 н/о н/о +14.8 +12.9 88 +15 +15 по сезону 1015.5 1007.3 +14.0
07 22.06 Ю 2 н/о н/о +15.6 +13.3 86 +15 +15 прохладно 1015.5 1007.3
08 22.06 Ю 3 н/о н/о +16.5 +12.9 79 +16 +16 прохладно 1015.7 1007.5
09 22.06 Ю 3 н/о н/о +18.1 +13.3 74 +18 +18 по сезону 1015.3 1007.3
10 22.06 ЮЗ 3 н/о н/о +19.4 +13.1 67 +21 +21 комфорт 1014.9 1006.9
11 22.06 Ю 4 н/о н/о +20.1 +12.8 63 +22 +22 комфорт 1014.8 1006.8
13 22.06 ЮЗ 4 н/о н/о +20.4 +12.5 60 +23 +23 комфорт 1014.6 1006.6
14 22.06 ЮЗ 4 н/о н/о +20.4 +12.3 60 +23 +23 комфорт 1014.5 1006.4
15 22.06 Ю 4 н/о н/о +20.3 +9.6 50 +22 +30 комфорт 1014.2 1006.2
16 22.06 Ю 4 н/о н/о +21.3 +6.4 38 +22 +22 комфорт 1013.6 1005.7
17 22.06 Ю 3 н/о н/о +18.8 +8.9 53 +20 +20 по сезону 1013.6 1005.6
18 22.06 Ю 4 н/о н/о +19.1 +6.4 43 +20 +20 по сезону 1013.4 1005.3 +21.5
19 22.06 Ю 4 н/о н/о +19.1 +6.4 43 +20 +20 тепло 1013.2 1005.1
20 22.06 Ю 4 н/о н/о +18.4 +5.3 42 +18 +18 по сезону 1013.2 1005.1
21 22.06 Ю 4 н/о н/о +18.4 +7.6 49 +19 +19 тепло 1013.4 1005.3
22 22.06 Ю 4 н/о н/о +17.0 +10.4 65 +17 +17 тепло 1013.8 1005.5 0.2
23 22.06 Ю 4 н/о н/о +15.3 +12.7 84 +14 +14 по сезону 1013.7 1005.5 4
00 23.06 ЮВ 4 12 км слаб. дождь 10/10 210 м
[Cu Sc]
+15.2 +13.3 88 +14 +14 по сезону 1013.2 1005.0 7
01 23.06 ЮВ 4 н/о н/о +14.8 +13.1 90 +14 +14 по сезону 1013.0 1004.9 2
02 23.06 ЮВ 3 н/о н/о +15.5 +13.9 90 +15 +15 по сезону 1012.0 1003.9 1
03 23.06 В 3 н/о н/о +15.9 +14.4 91 +15 +15 по сезону 1011.5 1003.5 1
04 23.06 ЮВ 3 н/о н/о +15.9 +14.8 93 +15 +15 по сезону 1011.6 1003.3 2
05 23.06 ЮВ 2 н/о н/о +16.0 +15.0 94 +16 +16 тепло 1011.4 1003.3 4
06 23.06 ЮЗ 2 н/о {дождь, морось} н/о +16.3 +15.4 94 +16 +16 по сезону 1011.8 1003.7 +14.8 28
07 23.06 Ю 3 н/о н/о +16.9 +16.1 95 +17 +17 по сезону 1012.1 1004.0 3
08 23.06 Ю 3 н/о н/о +17.0 +16.2 95 +17 +17 по сезону 1012.6 1004.4 0.1
09 23.06 Ю 3 н/о н/о +17.5 +16.7 95 +17 +17 по сезону 1012.9 1004.7
10 23.06 Ю 3 н/о н/о +17.6 +15.9 90 +18 +18 холодно 1013.1 1005.0
11 23.06 ЮЗ 3 н/о н/о +18.3 +15.5 84 +19 +19 прохладно 1013.5 1005.4
12 23.06 ЮЗ 3 20 км {дождь, морось} 10/10 180 м
[Cu Sc]
+18.2 +15.4 84 +19 +19 прохладно 1013.8 1005.7 3
13 23.06 ЮЗ 3 н/о н/о +20.0 +15.6 76 +23 +23 комфорт 1013.7 1005.6
14 23.06 ЮЗ 3 н/о н/о +21.1 +16.0 73 +24 +24 комфорт 1013.5 1005.5
15 23.06 ЮЗ 4 н/о н/о +20.8 +15.1 70 +24 +24 комфорт 1013.3 1005.4
16 23.06 ЮЗ 3 н/о н/о +20.1 +15.4 74 +23 +23 комфорт 1013.4 1005.3
17 23.06 З 3 н/о н/о +18.6 +15.1 80 +20 +20 по сезону 1013.3 1005.2
18 23.06 ЮЗ 2 н/о н/о +17.9 +14.8 82 +18 +18 прохладно 1013.5 1005.4 +21.5 3
19 23.06 З 2 н/о н/о +17.3 +14.6 84 +18 +18 по сезону 1013.7 1005.6
20 23.06 З 1 н/о н/о +17.0 +14.8 87 +18 +18 по сезону 1014.0 1005.7
21 23.06 З 1 н/о н/о +16.9 +14.9 88 +18 +18 по сезону 1014.5 1006.3
22 23.06 З 1 н/о н/о +16.6 +14.7 89 +17 +17 тепло 1014.7 1006.5
23 23.06 З 1 н/о н/о +16.5 +14.8 90 +17 +17 тепло 1014.9 1006.7
00 24.06 СЗ 1 5000 м дымка 10/9 120 м
[Cu Sc Ac trans]
+16.5 +15.1 91 +17 +17 тепло 1014.9 1006.7
01 24.06 В 3 н/о н/о +16.4 +14.9 91 +16 +16 тепло 1013.8 1005.6
02 24.06 З 1 н/о н/о +16.5 +14.7 89 +17 +17 тепло 1014.4 1006.3
03 24.06 ЮВ 1 н/о н/о +16.2 +14.5 90 +17 +17 тепло 1014.1 1005.8 0.1
04 24.06 ЮВ 2 н/о н/о +16.1 +14.5 90 +16 +16 тепло 1013.5 1005.5
05 24.06 В 1 н/о н/о +16.3 +14.8 91 +17 +17 тепло 1014.0 1005.7 0.1
06 24.06 СЗ 1 н/о {дождь} н/о +16.5 +15.1 91 +17 +17 тепло 1014.1 1006.0 +15.9 1
07 24.06 В 4 н/о н/о +16.6 +15.3 92 +16 +16 прохладно 1013.8 1005.5 0.2
08 24.06 З 1 н/о н/о +17.3 +15.6 90 +18 +18 по сезону 1014.8 1006.3
09 24.06 штиль 0 н/о н/о +18.4 +16.4 88 +19 +19 по сезону 1014.8 1006.7
10 24.06 ЮЗ 1 н/о н/о +18.7 +15.6 82 +21 +21 комфорт 1014.8 1006.7
11 24.06 ЮЗ 3 н/о н/о +20.5 +14.2 67 +23 +23 комфорт 1015.3 1007.0
12 24.06 ЮЗ 3 15 км {дождь} 8/4 450 м
[Cu Sc Ac trans Ci sp]
+20.5 +14.5 68 +23 +23 комфорт 1015.2 1007.1 0.2
13 24.06 З 3 н/о н/о +20.9 +15.5 71 +25 +25 комфорт 1015.4 1007.3
14 24.06 З 3 н/о н/о +19.8 +14.7 72 +22 +22 комфорт 1015.2 1007.2
15 24.06 ЮЗ 3 н/о н/о +20.7 +15.2 71 +24 +27 комфорт 1015.6 1007.5
16 24.06 ЮЗ 3 н/о н/о +21.7 +14.1 62 +25 +25 комфорт 1015.2 1007.2
17 24.06 ЮЗ 4 н/о н/о +20.9 +14.6 67 +24 +24 комфорт 1015.4 1007.3
18 24.06 З 4 н/о н/о +19.8 +14.3 71 +22 +22 комфорт 1015.6 1007.6 +21.9 0.2
19 24.06 З 2 н/о н/о +18.9 +14.9 78 +21 +21 комфорт 1015.7 1007.6
20 24.06 З 2 н/о н/о +17.8 +14.7 82 +18 +18 по сезону 1016.3 1008.1
21 24.06 З 1 н/о н/о +17.0 +14.5 85 +18 +18 по сезону 1016.7 1008.5
22 24.06 штиль 0 н/о н/о +16.5 +14.4 87 +16 +16 по сезону 1016.9 1008.7
23 24.06 В 2 н/о н/о +16.5 +14.2 86 +17 +17 тепло 1017.0 1008.8
00 25.06 В 2 н/о н/о +15.5 +13.4 87 +15 +15 по сезону 1016.9 1008.7
01 25.06 В 2 н/о н/о +15.4 +13.3 87 +15 +15 по сезону 1016.4 1008.2
02 25.06 В 2 н/о н/о +15.1 +13.0 87 +15 +15 по сезону 1016.0 1007.8
03 25.06 В 3 н/о н/о +15.3 +13.0 86 +15 +15 по сезону 1015.7 1007.5
04 25.06 В 4 н/о н/о +15.0 +12.7 86 +14 +14 по сезону 1015.5 1007.2
05 25.06 В 2 н/о н/о +14.9 +12.6 86 +15 +15 по сезону 1015.9 1007.6
06 25.06 В 4 н/о н/о +16.1 +13.2 83 +15 +15 по сезону 1015.9 1007.6 +14.7
07 25.06 В 3 н/о н/о +17.7 +14.1 79 +18 +18 по сезону 1016.2 1008.0
08 25.06 ЮВ 3 н/о н/о +19.5 +14.8 74 +21 +21 комфорт 1016.4 1008.3
09 25.06 ЮВ 3 н/о н/о +22.0 +14.5 62 +25 +32 комфорт 1016.2 1008.3
10 25.06 ЮЗ 4 н/о н/о +19.8 +14.9 73 +22 +22 комфорт 1016.7 1008.5
11 25.06 З 3 н/о н/о +19.6 +15.2 76 +22 +22 комфорт 1017.1 1008.9
12 25.06 З 3 15 км 8/3 360 м
[Cu hum Ac trans Ci sp]
+21.1 +14.6 66 +24 +31 комфорт 1017.1 1009.0
13 25.06 СЗ 3 н/о н/о +21.7 +12.9 57 +24 +24 комфорт 1016.6 1008.6
14 25.06 З 4 н/о н/о +21.7 +12.9 57 +24 +24 комфорт 1016.5 1008.5
15 25.06 СЗ 4 н/о н/о +20.9 +11.4 55 +23 +27 комфорт 1016.4 1008.4
16 25.06 СЗ 3 н/о н/о +20.9 +12.8 60 +24 +24 комфорт 1015.7 1007.7
17 25.06 СЗ 5 н/о н/о +19.5 +14.5 73 +21 +21 комфорт 1016.6 1008.5
18 25.06 С 4 н/о н/о +20.2 +13.4 65 +22 +22 комфорт 1015.9 1007.8 +22.8
19 25.06 В 3 н/о н/о +20.5 +12.3 59 +23 +23 комфорт 1015.7 1007.5
20 25.06 СЗ 5 н/о н/о +18.1 +13.9 76 +18 +18 по сезону 1016.0 1007.7
21 25.06 С 4 н/о н/о +18.1 +13.0 72 +18 +18 по сезону 1015.6 1007.5
22 25.06 СЗ 6 н/о н/о +17.4 +13.5 78 +17 +17 тепло 1016.4 1008.2
23 25.06 СЗ 4 н/о н/о +16.8 +13.7 82 +16 +16 по сезону 1016.2 1008.0
00 26.06 СЗ 2 12 км {дождь} 10/4 360 м
[Cu Sc Ac trans]
+16.4 +14.1 86 +16 +16 по сезону 1015.5 1007.2 0.0
01 26.06 СЗ 5 н/о н/о +16.4 +13.9 85 +15 +15 по сезону 1015.1 1006.9
02 26.06 СЗ 4 н/о н/о +16.6 +13.3 81 +16 +16 по сезону 1014.6 1006.5
03 26.06 СЗ 4 н/о н/о +16.9 +13.0 78 +16 +16 по сезону 1014.3 1006.2
04 26.06 С 3 н/о н/о +16.3 +12.9 80 +16 +16 тепло 1014.0 1005.8
05 26.06 З 3 н/о н/о +16.5 +13.6 83 +16 +16 тепло 1015.0 1006.7
06 26.06 З 3 н/о н/о +16.2 +13.5 84 +16 +16 по сезону 1015.3 1007.1 +16.1 0.0
07 26.06 З 1 н/о н/о +16.1 +14.1 88 +17 +17 тепло 1015.8 1007.6 0.2

 

Местоположение метеостанции Порту (Португалия): широта 41.23 долгота -8.68 высота над уровнем моря 77 м.

В архиве по умолчанию представлена погода в Порту за последнюю неделю. Архивные данные за месяц целиком и за предыдущие месяцы, начиная с января 2011 года, Вы можете получить, выбрав интересующий диапазон дат из раскрывающегося списка и нажав кнопку "Ввод!".


*Определитесь, кто Вы:
робот инопланетянин человек

Внимание! Время в таблицах - всемирное. Для получения местного времени необходимо прибавить поправку, которая равна 0 ч.

Смотрите также архив погоды в соседних городах и на ближайших метеорологических станциях:

Погода в Оваре (Португалия) (35 км)
Погода в Виана-ду-Каштелу (Португалия) (46 км)
Погода в Вила-Реале (Португалия) (80 км)
Погода в Визеу (Португалия) (88 км)
Погода в Виго (Испания) (111 км)
Погода в Коимбре (Португалия) (121 км)
Погода в Хинсо-де-Лимии (Испания) (123 км)
Погода в Обсерватории Penhas Douradas (Португалия) (131 км)
Погода в Понтеведре (Испания) (134 км)
Погода в Оренсе (Испания) (140 км)

Пояснения к столбцам:

Ветер - указаны скорость ветра в м/с - средняя за 10 мин, порывы в срок и между сроками (в фигурных скобках) и направление, откуда дует ветер: С - северный, СВ - северо-восточный, В - восточный, ЮВ - юго-восточный, Ю - южный, ЮЗ - юго-западный, З - западный, СЗ - северо-западный.
Видимость - горизонтальная дальность видимости в метрах или километрах. При видимости от 1 до 10 км при отсутствии осадков обычно наблюдается дымка, при ухудшении видимости до 1 км и менее - туман. В сухую погоду видимость может ухудшаться дымом, пылью или мглою.
Явления - указаны атмосферные явления, наблюдавшиеся в срок или в последний час перед сроком; фигурными скобками обозначены явления, наблюдавшиеся между сроками (за 1-3 часа до срока); квадратными скобками обозначены град или гололедные отложения с указанием их диаметра в мм.
Облачность - указаны через наклонную черту общая и нижняя облачность в баллах и высота нижней границы облаков в метрах; квадратными скобками обозначены формы облаков: Ci - перистые, Cs - перисто-слоистые, Cc - перисто-кучевые, Ac - высококучевые, As - высокослоистые, Sc - слоисто-кучевые, Ns - слоисто-дождевые, Cu - кучевые, Cb - кучево-дождевые. Подробнее классификацию облаков см. в Атласе облаков (PDF).
T - Температура воздуха - температура, измеренная на высоте 2 м над землей.
Td - Температура точки росы - температура, при понижении до которой содержащийся в воздухе водяной пар достигнет насыщения.
f - Относительная влажность воздуха - влажноcть воздуха, измеренная на высоте 2 м над землей.
Te - Эффективная температура - температура, которую ощущает одетый по сезону человек в тени. Характеристика душности погоды. При расчете учитывается влияние влажности воздуха и скорости ветра на теплоощущения человека.
Tes - Эффективная температура на солнце - температура, которую ощущает человек, с поправкой на солнечный нагрев. Характеристика знойности погоды. Зависит от высоты солнца над горизонтом, облачности и скорости ветра. Ночью, в пасмурную погоду, а также при ветре 12 м/с и более поправка равна нулю.
P - Атмосферное давление - приведенное к уровню моря атмосферное давление.
Po - Атмосферное давление - измеренное на уровне метеостанции атмосферное давление.
Tmin - Минимальная температура - минимум температуры воздуха на высоте 2 м над землей.
Tmax - Максимальная температура - максимум температуры воздуха на высоте 2 м над землей.
R - Количество осадков - Количество выпавших осадков за период времени, мм. При наведении курсора мыши на число - период времени, за который выпало указанное количество осадков.
R24 - Количество осадков - Количество выпавших осадков за 24 часа, мм.
S - Снежный покров - Высота снежного покрова, см. При наведении курсора мыши на число - состояние снежного покрова и степень покрытия местности в баллах.